Zurück zum Katalog

STARLINK-5523

AktivKommunikationVLEO
NORAD 56470·PAYLOAD·🇺🇸 United States

Gestartet May 10, 2023 von Vandenberg Space Force Base

Loading…

Nächste Überflüge (nächste 24 Stunden)

TLE

AktuellSource: CelesTrak SupGP

Epoche: Sep 15, 2026, 03:08 UTC

1 56470C 23064Y   26258.13104167  .00576570  00000+0  47878-1 0  2585
2 56470  70.0018   6.9567 0003038 270.8874  33.7667 14.98394486    12

Verfolge STARLINK-5523 in Echtzeit mit AllMySat

Download on the App Store